Location: Moy Burn
(57.3833°N, 4.0667°W)
Time: 10:20:20
(UTC+00:00)

Cosmos 1900 - Pass Details

Date: 08 August 2020
Orbit: 680 x 742 km, 66.1° (Epoch: 18 September)

Event Time Altitude Azimuth Distance (km) Brightness Sun altitude
Rises 21:20:26 0° 222° (SW) 3,079 7.6 -7.8°
Reaches altitude 10° 21:22:45 10° 221° (SW) 2,174 6.8 -8.0°
Maximum altitude 21:27:42 82° 135° (SE) 730 4.3 -8.4°
Drops below altitude 10° 21:32:48 10° 49° (NE) 2,227 6.9 -8.9°
Sets 21:35:11 0° 48° (NE) 3,161 7.7 -9.1°
